FW9167 Weather Reports


Display with metric or nautical units.
time (UTC)temp
F
wind
direction
speed
MPH
gust
MPH
rain 1hr
in
rain 24hr
in
rain mn
in
humidity
%
barometer
mb
20260506014602 71 27 7.0 21.0 0.00 0.00 0.00 32 1011.0
20260506013103 72 20 9.0 18.0 0.00 0.00 0.00 31 1010.9
20260506011601 73 18 6.0 17.0 0.00 0.00 0.00 30 1010.8
20260506010103 73 13 11.0 16.0 0.00 0.00 0.00 31 1010.7
20260506004602 74 41 6.0 14.0 0.00 0.00 0.00 30 1010.7
20260506003102 74 54 9.0 14.0 0.00 0.00 0.00 32 1010.6
20260505234602 75 44 11.0 17.0 0.00 0.00 0.00 30 1010.3
20260505233102 75 33 13.0 16.0 0.00 0.00 0.00 29 1010.3
20260505231603 76 62 9.0 17.0 0.00 0.00 0.00 29 1010.3
20260505224602 77 28 7.0 11.0 0.00 0.00 0.00 30 1010.4
20260505223104 76 5 5.0 11.0 0.00 0.00 0.00 27 1010.4
20260505221602 76 12 5.0 13.0 0.00 0.00 0.00 29 1010.7
20260505220107 75 53 6.0 12.0 0.00 0.00 0.00 28 1010.8
20260505214602 76 27 12.0 16.0 0.00 0.00 0.00 28 1010.7
20260505213106 76 345 8.0 16.0 0.00 0.00 0.00 29 1010.7
20260505211604 77 25 3.0 7.0 0.00 0.00 0.00 26 1010.8
20260505210103 76 49 1.0 13.0 0.00 0.00 0.00 24 1010.9
20260505204603 75 339 0.0 9.0 0.00 0.00 0.00 27 1011.0
20260505203103 75 21 4.0 7.0 0.00 0.00 0.00 26 1011.2
20260505201603 74 316 5.0 10.0 0.00 0.00 0.00 27 1011.3
20260505194602 75 38 6.0 13.0 0.00 0.00 0.00 27 1011.6
20260505193104 75 340 4.0 9.0 0.00 0.00 0.00 27 1011.5
20260505190105 72 41 10.0 13.0 0.00 0.00 0.00 30 1011.7
20260505184603 74 23 11.0 14.0 0.00 0.00 0.00 30 1011.8
20260505183103 74 58 10.0 17.0 0.00 0.00 0.00 33 1011.7
20260505181602 72 105 2.0 5.0 0.00 0.00 0.00 36 1011.9
20260505180104 71 96 0.0 6.0 0.00 0.00 0.00 44 1012.0
20260505174603 71 116 0.0 5.0 0.00 0.00 0.00 45 1012.1
20260505171602 69 143 2.0 4.0 0.00 0.00 0.00 47 1012.4
20260505170105 68 165 1.0 5.0 0.00 0.00 0.00 48 1012.3
20260505164602 67 208 0.0 4.0 0.00 0.00 0.00 49 1012.3
20260505163103 67 159 0.0 3.0 0.00 0.00 0.00 52 1012.3
20260505161602 66 130 1.0 4.0 0.00 0.00 0.00 50 1012.3
20260505153102 65 146 0.0 2.0 0.00 0.00 0.00 53 1012.1
20260505151603 65 158 0.0 2.0 0.00 0.00 0.00 53 1012.0
20260505130105 48 335 3.0 6.0 0.00 0.00 0.00 72 1011.0
20260505124603 47 337 1.0 5.0 0.00 0.00 0.00 75 1010.8
20260505123102 48 345 0.0 2.0 0.00 0.00 0.00 72 1010.7
20260505121602 49 335 0.0 3.0 0.00 0.00 0.00 69 1010.4
20260505120104 48 285 3.0 4.0 0.00 0.00 0.00 72 1010.2
20260505114605 48 347 0.0 4.0 0.00 0.00 0.00 71 1010.1
20260505113102 49 328 0.0 2.0 0.00 0.00 0.00 70 1009.9
20260505111602 49 41 3.0 4.0 0.00 0.00 0.00 68 1010.0
20260505101603 50 13 0.0 4.0 0.00 0.00 0.00 66 1009.6
20260505100105 51 341 3.0 4.0 0.00 0.00 0.00 64 1009.5
20260505094604 51 339 2.0 4.0 0.00 0.00 0.00 64 1009.5
20260505091602 51 335 2.0 5.0 0.00 0.00 0.00 63 1009.4
20260505090104 54 343 1.0 4.0 0.00 0.00 0.00 59 1009.4
20260505084601 53 323 3.0 5.0 0.00 0.00 0.00 60 1009.5
20260505083106 54 351 1.0 6.0 0.00 0.00 0.00 58 1009.4
20260505081603 53 20 2.0 6.0 0.00 0.00 0.00 60 1009.5
20260505080103 54 325 0.0 5.0 0.00 0.00 0.00 59 1009.5
20260505074606 54 330 2.0 6.0 0.00 0.00 0.00 61 1009.5
20260505073103 54 349 2.0 4.0 0.00 0.00 0.00 60 1009.5
20260505071602 55 351 4.0 4.0 0.00 0.00 0.00 59 1009.4
20260505070104 52 358 0.0 5.0 0.00 0.00 0.00 64 1009.3
20260505064605 51 3 0.0 3.0 0.00 0.00 0.00 68 1009.2
20260505063104 54 294 1.0 3.0 0.00 0.00 0.00 60 1009.1
20260505061602 55 290 1.0 5.0 0.00 0.00 0.00 59 1009.1
20260505054605 54 11 0.0 5.0 0.00 0.00 0.00 62 1009.1
20260505053107 54 336 0.0 4.0 0.00 0.00 0.00 63 1009.2
20260505051601 53 352 0.0 2.0 0.00 0.00 0.00 65 1009.3
20260505050105 55 4 1.0 2.0 0.00 0.00 0.00 61 1009.2
20260505041602 60 333 1.0 3.0 0.00 0.00 0.00 53 1008.7
20260505034601 60 353 2.0 3.0 0.00 0.00 0.00 52 1008.3
20260505033103 63 348 1.0 4.0 0.00 0.00 0.00 45 1008.0
20260505031603 65 40 1.0 5.0 0.00 0.00 0.00 42 1007.6
20260505024602 70 15 1.0 7.0 0.00 0.00 0.00 33 1007.4
20260505023102 72 49 3.0 10.0 0.00 0.00 0.00 30 1007.2
20260505020103 74 18 11.0 14.0 0.00 0.00 0.00 31 1006.9